This demonstration page uses our WeatherBlox Daily Observations layout. Learn more.

Left ArrowRight Arrow

34.02893, -84.19858

Hourly Observations for August 8, 2022

Temp ( °F °C ) Dew Point ( °F °C ) Humidity (%) Winds ( mph kmh ) Pressure ( in mb ) Visibility ( mi km ) Precip ( " mm )
12:53 am 00:53 Clear 74 23.3 70 21.1 88 88 WSW 5 7 30.13 1020 10 16 0.00 0.00
1:53 am 01:53 Clear 73 22.8 71 21.7 94 94 Calm 30.12 1020 10 16 0.00 0.00
2:53 am 02:53 Clear 73 22.8 70 21.1 90 90 Calm 30.09 1019 10 16 0.00 0.00
3:53 am 03:53 Clear 71 21.7 70 21.1 96 96 SW 3 6 30.09 1019 10 16 0.00 0.00
4:53 am 04:53 Clear 71 21.7 69 20.6 94 94 SSW 5 7 30.09 1019 10 16 0.00 0.00
5:53 am 05:53 Clear 71 21.7 69 20.6 94 94 Calm 30.10 1019 10 16 0.00 0.00
6:53 am 06:53 Clear 70 21.1 69 20.6 97 97 Calm 30.11 1020 10 16 0.00 0.00
7:53 am 07:53 Mostly Sunny 73 22.8 71 21.7 94 94 Calm 30.13 1020 10 16 0.00 0.00
8:53 am 08:53 Sunny 77 25 71 21.7 82 82 Calm 30.14 1021 10 16 0.00 0.00
9:53 am 09:53 Sunny 82 27.8 71 21.7 69 69 VRB 3 6 30.13 1020 10 16 0.00 0.00
10:53 am 10:53 Mostly Sunny 83 28.3 73 22.8 72 72 NW 7 11 30.14 1021 10 16 0.00 0.00
11:53 am 11:53 Mostly Sunny 84 28.9 72 22.2 67 67 SW 3 6 30.13 1020 10 16 0.00 0.00
12:53 pm 12:53 Partly Cloudy 86 30 73 22.8 65 65 Calm 30.11 1020 10 16 0.00 0.00
1:53 pm 13:53 Sunny 88 31.1 72 22.2 59 59 VRB 3 6 30.09 1019 10 16 0.00 0.00
2:20 pm 14:20 Partly Cloudy with Nearby Thunderstorms 87 30.6 72 22.2 61 61 VRB 6 9 30.08 1018 10 16 0.00 0.00
2:53 pm 14:53 Partly Cloudy with Nearby Thunderstorms 87 30.6 71 21.7 59 59 Calm 30.08 1019 10 16 0.00 0.00
3:15 pm 15:15 Cloudy with Nearby Thunderstorms 77 25 73 22.8 88 88 N 12 19 30.10 1019 2 3 0.08 2.03
3:24 pm 15:24 Cloudy with Strong Thunderstorms 77 25 73 22.8 88 88 NW 8 13 30.10 1019 10 16 0.17 4.32
3:49 pm 15:49 Mostly Cloudy with Nearby Thunderstorms 79 26 72 22 79 79 NW 5 7 30.06 1018 10 16 0.21 5.33
3:53 pm 15:53 Mostly Cloudy with Nearby Thunderstorms 78 25.6 73 22.8 85 85 NNW 7 11 30.07 1018 10 16 0.21 5.33
4:22 pm 16:22 Sunny 80 26.7 73 22.8 79 79 N 6 9 30.06 1018 10 16 0.00 0.00
4:53 pm 16:53 Sunny 82 27.8 73 22.8 74 74 N 8 13 30.05 1018 10 16 0.00 0.00
5:53 pm 17:53 Sunny 81 27.2 74 23.3 79 79 Calm 30.04 1017 10 16 0.00 0.00
6:53 pm 18:53 Sunny 83 28.3 72 22.2 70 70 Calm 30.04 1017 10 16 0.00 0.00
7:53 pm 19:53 Sunny 81 27.2 75 23.9 82 82 Calm 30.02 1017 10 16 0.00 0.00
8:53 pm 20:53 Clear 77 25 75 23.9 94 94 SSE 3 6 30.05 1018 10 16 0.00 0.00
9:53 pm 21:53 Clear 77 25 73 22.8 88 88 S 5 7 30.06 1018 10 16 0.00 0.00
10:53 pm 22:53 Clear 76 24.4 73 22.8 91 91 S 5 7 30.08 1019 10 16 0.00 0.00
11:53 pm 23:53 Partly Cloudy 75 23.9 73 22.8 94 94 Calm 30.09 1019 10 16 0.00 0.00

Powered by AerisWeather